Flag for U.S.A. Weather past 2 weeks in Lafayette, Indiana, U.S.A.

Now
54 °F

Overcast.


Feels Like: 51 °F
Forecast: 43 / 53 °F
Wind: 10 mph from North

Location: Purdue University Airport

Current Time: Oct 21, 2014 at 2:59:55 PM

Latest Report: Oct 21, 2014 at 1:54 PM


Visibility: 10 mi

Pressure: 30.12 "Hg

Humidity: 62%

Dew point: 41 °F

Location of LafayetteLocation

Historic Weather in Lafayette — Graph

°F

Lafayette temperature yesterday

Maximum temperature yesterday: 66 °F (at 2:54 PM)
Minimum temperature yesterday: 47 °F (at 12:54 AM)
Average temperature yesterday: 55 °F

Past Weeks' High & Low Weather Summary

 TemperatureHumidityPressure
High73 °F (Oct 13, 1:54 PM)100% (Oct 8, 3:54 AM)30.26 "Hg (Oct 8, 3:54 AM)
Low33 °F (Oct 19, 7:54 AM)36% (Oct 8, 3:54 PM)29.48 "Hg (Oct 14, 7:54 AM)
Average53 °F81%29.90 "Hg
* Reported Oct 6 1:54 PM — Oct 21 1:54 PM, Lafayette, Weather by CustomWeather, © 2014

Note: Actual official high and low records may vary slightly from our data, if they occured in-between our weather recording intervals... More about our weather records

Advertising

Lafayette weather history for previous 24 hours

 ConditionsComfort  
Time TempWeatherWind HumidityBarometerVisibility
1:54 PM
Oct 21
54 °FOvercast.10 mph62%30.12 "Hg10 mi
12:54 PM54 °FOvercast.13 mph62%30.11 "Hg10 mi
11:54 AM55 °FScattered clouds.12 mph62%30.11 "Hg10 mi
10:54 AM50 °FMore clouds than sun.17 mph83%30.11 "Hg10 mi
9:54 AM48 °FLight rain. Fog.6 mph93%30.10 "Hg6 mi
8:54 AM48 °FOvercast.7 mph89%30.08 "Hg10 mi
7:54 AM48 °FMostly cloudy.8 mph89%30.05 "Hg10 mi
6:54 AM47 °FOvercast.7 mph93%30.03 "Hg10 mi
5:54 AM47 °FOvercast.6 mph93%30.01 "Hg8 mi
4:54 AM43 °FFog.6 mph97%30.00 "Hg5 mi
3:54 AM43 °FPassing clouds.5 mph97%29.99 "Hg7 mi
2:54 AM44 °FFog.6 mph96%29.98 "Hg6 mi
1:54 AM47 °FPassing clouds.5 mph93%29.98 "Hg10 mi
12:54 AM50 °FOvercast.3 mph86%29.98 "Hg10 mi
11:54 PM
Oct 20
51 °FOvercast.3 mph86%29.98 "Hg10 mi
10:54 PM50 °FPassing clouds.5 mph86%29.97 "Hg10 mi
9:54 PM52 °FClear.7 mph80%29.96 "Hg10 mi
8:54 PM57 °FPassing clouds.12 mph69%29.93 "Hg10 mi
7:54 PM60 °FPartly sunny.8 mph62%29.90 "Hg10 mi
6:54 PM60 °FSunny.7 mph62%29.88 "Hg10 mi
5:54 PM64 °FPartly sunny.9 mph56%29.85 "Hg10 mi
4:54 PM66 °FPassing clouds.13 mph52%29.83 "Hg10 mi
3:54 PM66 °FScattered clouds.14 mph52%29.82 "Hg10 mi
2:54 PM66 °FSunny.12 mph52%29.82 "Hg10 mi
Weather by CustomWeather, © 2014

See weather overviewHow to use our weather pages